Location: Unspecified
(0.0000°N, 0.0000°E)
Time: 11:04:00
(UTC+00:00)

AO-27 - Visible Passes

Search period start: 29 November 2022 00:00
Search period end: 09 December 2022 00:00
Orbit: 785 x 796 km, 98.9° (Epoch: 28 November)

Date Brightness Start Highest point End Pass type
(mag) Time Alt. Az. Time Alt. Az. Time Alt. Az.
29 Nov 8.8 19:51:00 10° SSE 19:53:46 33° SSE 19:53:46 33° SSE visible
30 Nov 9.1 19:22:16 10° SE 19:24:14 21° SE 19:24:14 21° SE visible
30 Nov 10.5 21:03:50 10° SW 21:04:58 12° WSW 21:04:58 12° WSW visible
01 Dec 9.6 20:32:34 10° SSW 20:35:26 25° SW 20:35:26 25° SW visible
02 Dec 8.7 20:02:44 10° S 20:05:54 38° S 20:05:54 38° S visible
03 Dec 8.8 19:33:42 10° SSE 19:36:23 29° SE 19:36:23 29° SE visible
04 Dec 9.4 19:05:34 10° SE 19:06:50 15° ESE 19:06:50 15° ESE visible
04 Dec 9.9 20:44:48 10° SSW 20:47:35 21° WSW 20:47:35 21° WSW visible
05 Dec 8.8 20:14:35 10° S 20:18:03 38° SSW 20:18:03 38° SSW visible
06 Dec 8.4 19:45:15 10° SSE 19:48:30 39° SSE 19:48:30 39° SSE visible
07 Dec 9.0 19:16:44 10° SE 19:18:58 22° ESE 19:18:58 22° ESE visible
07 Dec 10.2 20:57:18 10° SW 20:59:43 16° WSW 20:59:43 16° WSW visible
08 Dec 9.2 20:26:33 10° S 20:30:10 33° SW 20:30:10 33° SW visible
